Location: El Recuerdo
(3.6589°N, 75.6172°W)
Time: 23:31:54
(UTC+00:00)

Meteor 1-5 Rocket - Visible Passes

Search period start: 14 March 2026 00:00
Search period end: 24 March 2026 00:00
Orbit: 788 x 913 km, 81.2° (Epoch: 14 March)

Date Brightness Start Highest point End Pass type
(mag) Time Alt. Az. Time Alt. Az. Time Alt. Az.
14 Mar 7.3 00:45:07 10° WSW 00:48:24 15° W 00:51:42 10° NW visible
15 Mar 7.3 00:32:37 10° WSW 00:36:19 17° W 00:40:02 10° NW visible
16 Mar 7.2 00:20:10 10° SW 00:24:15 19° W 00:28:19 10° NW visible
17 Mar 7.1 00:07:47 10° SW 00:12:11 21° W 00:16:32 10° NW visible
17 Mar 7.0 23:55:27 10° SW 00:00:05 24° W 00:04:43 10° NNW visible
18 Mar 6.8 23:43:08 10° SW 23:48:01 26° W 23:52:52 10° NNW visible
19 Mar 4.2 10:43:07 10° N 10:48:23 83° E 10:53:42 10° S visible
19 Mar 6.7 23:30:52 10° SW 23:35:57 29° W 23:40:59 10° NNW visible
20 Mar 4.4 10:31:02 10° N 10:36:17 74° E 10:41:36 10° S visible
21 Mar 4.5 10:18:59 10° N 10:24:11 65° E 10:29:29 10° SSE visible
22 Mar 4.8 10:06:56 10° N 10:12:06 58° E 10:17:20 10° SSE visible
23 Mar 5.0 09:54:54 10° N 10:00:00 51° E 10:05:11 10° SSE visible
